User: anonymous   Login
Location: Unspecified
(0.0000°N, 0.0000°E)
Time: 19:55:38
(UTC+00:00)
Language:

GONETS M 05 - Orbit

View from above orbital plane
View from above orbital plane
View from above satellite
View from above satellite

Ground track
Ground track

The orbit data is extracted from the following two-line orbital elements,

1 39249U 13048A   21025.72491275  .00000051  00000-0  29960-3 0  9995
2 39249  82.4840 130.5231 0016300 185.9209 174.1680 12.42881298334501
Epoch (UTC): 25 January 2021 17:23:52
Eccentricity: 0.0016300
inclination: 82.4840°
perigee height: 1481 km
apogee height: 1507 km
right ascension of ascending node: 130.5231°
argument of perigee: 185.9209°
revolutions per day: 12.42881298
mean anomaly at epoch: 174.1680°
orbit number at epoch: 33450

The dashed part of the orbit path shows where the satellite is in the earth's shadow,  

DLR